Weather History for KSJT - October, 2012

Change the Weather History Date:

Sunday, October 7, 2012

  Actual Average Record
Temperature  
Mean Temperature 47 °F 69 °F  
Max Temperature 51 °F 81 °F 98 °F (2014)
Min Temperature 43 °F 56 °F 41 °F (2000)
Degree Days  
Heating Degree Days 18 1  
Month to date heating degree days 29 7  
Since 1 July heating degree days 31 16  
Cooling Degree Days 0 5  
Month to date cooling degree days 28 42  
Year to date cooling degree days 3072 2407  
Moisture  
Dew Point 38 °F    
Average Humidity 71    
Maximum Humidity 83    
Minimum Humidity 59    
Precipitation  
Precipitation T in 0.09 in 1.83 in (2002)
Month to date precipitation 0.01 0.60  
Year to date precipitation 21.30 17.13  
Snow  
Snow 0.00 in 0.00 in 0.00 in (2002)
Month to date snowfall 0.0 0.0  
Since 1 July snowfall 0.0 0.0  
Snow Depth 0.00 in    
Sea Level Pressure  
Sea Level Pressure 30.25 in    
Wind  
Wind Speed 10 mph (NE)    
Max Wind Speed 20 mph    
Max Gust Speed 23 mph    
Visibility 10 miles    
Events Rain    
T = Trace of Precipitation, MM = Missing Value Source: NWS Daily Summary

Daily Weather History Graph

Daily Weather History Graph

Search for Another Location

Airport or City:

Trip Planner

Search our weather history database for the weather conditions in past years. The results will help you decide how hot, cold, wet, or windy it might be!

Date:

Astronomy

Oct. 07, 2012 Rise Set
Actual Time 7:39 AM CDT 7:18 PM CDT
Civil Twilight 7:15 AM CDT 7:43 PM CDT
Nautical Twilight 6:47 AM CDT 8:11 PM CDT
Astronomical Twilight 6:19 AM CDT 8:39 PM CDT
Moon No Moon Rise 2:03 PM CDT (10/7)
Length of Visible Light 12h 27m
Length of Day
11h 39m
Waning Gibbous, 56% of the Moon is Illuminated
Oct 7
Waning Gibbous
Oct 8
Last Quarter
Oct 15
New
Oct 21
First Quarter
Oct 29
Full

Hourly Weather History & Observations

Time (CDT) Temp. Windchill Dew Point Humidity Pressure Visibility Wind Dir Wind Speed Gust Speed Precip Events Conditions
12:40 AM 46.4 °F 40.7 °F 41.0 °F 81% 30.24 in 10.0 mi NNE 12.7 mph - N/A   Overcast
12:51 AM 46.0 °F 39.3 °F 41.0 °F 83% 30.24 in 10.0 mi NNE 16.1 mph - N/A   Overcast
1:46 AM 46.4 °F 39.2 °F 39.2 °F 76% 30.24 in 10.0 mi NE 18.4 mph 23.0 mph N/A   Overcast
2:51 AM 46.0 °F 38.8 °F 39.0 °F 76% 30.26 in 10.0 mi NNE 18.4 mph - N/A   Overcast
3:51 AM 44.1 °F 36.8 °F 39.9 °F 85% 30.26 in 10.0 mi NNE 16.1 mph - 0.00 in   Overcast
4:51 AM 44.1 °F 36.8 °F 37.9 °F 79% 30.26 in 10.0 mi NNE 16.1 mph - N/A   Overcast
5:51 AM 43.0 °F 35.7 °F 37.9 °F 82% 30.27 in 8.0 mi NNE 15.0 mph - 0.00 in Rain Light Rain
6:51 AM 43.0 °F 36.4 °F 37.9 °F 82% 30.28 in 10.0 mi NE 12.7 mph - 0.00 in   Overcast
7:51 AM 43.0 °F 37.7 °F 39.0 °F 86% 30.29 in 10.0 mi ENE 9.2 mph - 0.00 in Rain Light Rain
8:51 AM 44.1 °F 39.5 °F 37.9 °F 79% 30.29 in 10.0 mi NE 8.1 mph - 0.00 in   Overcast
9:42 AM 44.6 °F 40.2 °F 37.4 °F 76% 30.29 in 10.0 mi NE 8.1 mph - N/A   Overcast
9:51 AM 45.0 °F 40.1 °F 37.0 °F 74% 30.30 in 10.0 mi NE 9.2 mph - N/A   Overcast
10:51 AM 46.9 °F - 36.0 °F 66% 30.30 in 10.0 mi NE 11.5 mph - N/A   Overcast
11:51 AM 48.0 °F - 36.0 °F 63% 30.28 in 10.0 mi NE 11.5 mph - N/A   Overcast
12:51 PM 48.0 °F - 37.0 °F 66% 30.28 in 10.0 mi NE 9.2 mph - N/A   Overcast
1:29 PM 48.2 °F - 37.4 °F 66% 30.25 in 10.0 mi ENE 8.1 mph - N/A   Overcast
1:51 PM 50.0 °F - 37.0 °F 61% 30.25 in 10.0 mi NE 9.2 mph - N/A   Overcast
2:51 PM 50.0 °F - 37.0 °F 61% 30.22 in 10.0 mi ENE 8.1 mph - N/A   Overcast
3:51 PM 51.1 °F - 37.9 °F 61% 30.19 in 10.0 mi ENE 6.9 mph - N/A   Overcast
4:51 PM 50.0 °F - 37.9 °F 63% 30.19 in 10.0 mi NNE 9.2 mph - N/A   Overcast
5:51 PM 48.9 °F - 37.9 °F 66% 30.19 in 10.0 mi NE 11.5 mph - N/A   Overcast
6:51 PM 48.9 °F - 37.0 °F 64% 30.22 in 10.0 mi NE 10.4 mph - N/A   Overcast
7:13 PM 48.2 °F - 37.4 °F 66% 30.21 in 10.0 mi ENE 10.4 mph - N/A   Overcast
7:44 PM 48.2 °F - 37.4 °F 66% 30.22 in 10.0 mi ENE 6.9 mph - N/A   Overcast
7:51 PM 48.9 °F - 37.9 °F 66% 30.23 in 10.0 mi ENE 8.1 mph - N/A   Overcast
8:51 PM 48.9 °F - 37.9 °F 66% 30.24 in 10.0 mi ENE 9.2 mph - N/A   Overcast
9:51 PM 48.0 °F - 37.0 °F 66% 30.25 in 10.0 mi ENE 6.9 mph - N/A   Overcast
10:51 PM 48.0 °F - 37.0 °F 66% 30.26 in 10.0 mi ENE 9.2 mph - N/A   Overcast
11:51 PM 48.0 °F - 37.0 °F 66% 30.24 in 10.0 mi East 4.6 mph - N/A   Overcast